Lima, OH

7:36 PM EDT on April 19, 2018 (GMT -0400)
Lima Allen County

Weather History for KAOH - March, 2014

Change the Weather History Date:

Wednesday, March 26, 2014

  Actual Average (KFDY) Record (KFDY)
Temperature  
Mean Temperature 25 °F -  
Max Temperature 35 °F 48 °F 77 °F (2007)
Min Temperature 15 °F 30 °F 6 °F (2001)
Degree Days  
Heating Degree Days 40    
Moisture  
Dew Point 12 °F    
Average Humidity 58    
Maximum Humidity 74    
Minimum Humidity 40    
Precipitation  
Precipitation 0.00 in - - ()
Sea Level Pressure  
Sea Level Pressure 30.29 in    
Wind  
Wind Speed 6 mph (West)    
Max Wind Speed 10 mph    
Max Gust Speed -    
Visibility 10 miles    
Events      
Averages and records for this station are not official NWS values.
T = Trace of Precipitation, MM = Missing Value Source: NWS Daily Summary

Daily Weather History Graph

Daily Weather History Graph

Search for Another Location

Airport or City:

Astronomy

Mar. 26, 2014 Rise Set
Actual Time 7:29 AM EDT 7:54 PM EDT
Civil Twilight 7:02 AM EDT 8:22 PM EDT
Nautical Twilight 6:29 AM EDT 8:54 PM EDT
Astronomical Twilight 5:56 AM EDT 9:27 PM EDT
Moon 4:38 AM EDT (3/26) 3:30 PM EDT (3/26)
Length of Visible Light 13h 19m
Length of Day
12h 25m
Waning Crescent, 22% of the Moon is Illuminated
Mar 26
Waning Crescent
Mar 30
New
Apr 7
First Quarter
Apr 15
Full
Apr 22
Last Quarter

Hourly Weather History & Observations

Time (EDT) Temp. Windchill Dew Point Humidity Pressure Visibility Wind Dir Wind Speed Gust Speed Precip Events Conditions
12:53 AM 19.0 °F 9.0 °F 8.1 °F 62% 30.22 in 10.0 mi NNW 8.1 mph - N/A   Clear
1:53 AM 18.0 °F 9.8 °F 8.1 °F 65% 30.24 in 10.0 mi NW 5.8 mph - N/A   Clear
2:53 AM 17.1 °F 8.7 °F 8.1 °F 68% 30.24 in 10.0 mi NW 5.8 mph - N/A   Clear
3:53 AM 16.0 °F 6.3 °F 8.1 °F 71% 30.25 in 10.0 mi WNW 6.9 mph - N/A   Clear
4:53 AM 15.1 °F 7.7 °F 7.0 °F 70% 30.25 in 10.0 mi WNW 4.6 mph - N/A   Clear
5:53 AM 16.0 °F 8.8 °F 9.0 °F 74% 30.28 in 10.0 mi West 4.6 mph - N/A   Mostly Cloudy
6:53 AM 17.1 °F 11.7 °F 9.0 °F 71% 30.30 in 10.0 mi WNW 3.5 mph - N/A   Mostly Cloudy
7:53 AM 17.1 °F 11.7 °F 9.0 °F 71% 30.32 in 10.0 mi WSW 3.5 mph - N/A   Scattered Clouds
8:53 AM 19.9 °F 14.9 °F 12.0 °F 71% 30.35 in 10.0 mi West 3.5 mph - N/A   Clear
9:53 AM 21.9 °F 15.7 °F 7.0 °F 53% 30.37 in 10.0 mi NW 4.6 mph - N/A   Partly Cloudy
10:53 AM 24.1 °F 17.0 °F 8.1 °F 51% 30.38 in 10.0 mi NW 5.8 mph - N/A   Partly Cloudy
11:53 AM 27.0 °F 18.0 °F 12.0 °F 53% 30.38 in 10.0 mi West 9.2 mph - N/A   Mostly Cloudy
12:53 PM 28.9 °F 19.8 °F 12.9 °F 51% 30.38 in 10.0 mi West 10.4 mph - N/A   Mostly Cloudy
1:53 PM 30.0 °F 23.2 °F 12.0 °F 47% 30.35 in 10.0 mi WNW 6.9 mph - N/A   Mostly Cloudy
2:53 PM 32.0 °F 24.8 °F 14.0 °F 48% 30.32 in 10.0 mi West 8.1 mph - N/A   Overcast
3:53 PM 32.0 °F 25.6 °F 12.0 °F 44% 30.31 in 10.0 mi West 6.9 mph - N/A   Scattered Clouds
4:53 PM 34.0 °F 27.2 °F 12.0 °F 40% 30.28 in 10.0 mi WSW 8.1 mph - N/A   Clear
5:53 PM 35.1 °F 28.6 °F 14.0 °F 42% 30.26 in 10.0 mi SSW 8.1 mph - N/A   Clear
6:53 PM 35.1 °F 28.6 °F 14.0 °F 42% 30.26 in 10.0 mi SW 8.1 mph - N/A   Clear
7:53 PM 33.1 °F 28.7 °F 15.1 °F 48% 30.25 in 10.0 mi South 4.6 mph - N/A   Clear
8:53 PM 28.9 °F 23.9 °F 16.0 °F 58% 30.25 in 10.0 mi SSE 4.6 mph - N/A   Clear
9:53 PM 28.0 °F 21.7 °F 17.1 °F 63% 30.26 in 10.0 mi SSE 5.8 mph - N/A   Clear
10:53 PM 28.0 °F 20.8 °F 17.1 °F 63% 30.25 in 10.0 mi SSE 6.9 mph - N/A   Clear
11:53 PM 28.9 °F 19.8 °F 17.1 °F 61% 30.23 in 10.0 mi SSE 10.4 mph - N/A   Clear